Regional Weather Roundup
Issued by NWS

Home | Current Version | Previous Version | Graphics & Text | Print | Product List | Glossary On
Versions: 1 2 3 4 5 6 7 8 9 10 11 12 13 14 15 16 17 18 19 20 21 22 23 24 25 26 27 28 29 30 31 32 33 34 35 36 37 38 39 40 41 42 43 44 45 46 47 48 49 50
244
ASUS43 KLOT 050403
RWRIL

ILLINOIS REGIONAL WEATHER ROUNDUP
NATIONAL WEATHER SERVICE CHICAGO/ROMEOVILLE IL
1100 PM CDT WED MAY 04 2016

NOTE: "FAIR" INDICATES FEW OR NO CLOUDS BELOW 12,000 FEET WITH NO
SIGNIFICANT WEATHER AND/OR OBSTRUCTIONS TO VISIBILITY.

* THESE STATIONS ARE NOT UNDER NWS QUALITY CONTROL. THEY ALSO MAY NOT
  REPORT WEATHER SUCH AS PRECIPITATION OR FOG.

ILZ001-002-007-009-015-016-024-050500-
NORTHWEST ILLINOIS

CITY           SKY/WX    TMP DP  RH WIND       PRES   REMARKS
MOLINE         CLEAR     54  33  45 NW6       29.89R
STERLING*      CLEAR     50  37  62 NE8       29.91R
$$

ILZ003-004-008-010-011-017-018-050500-
NORTH CENTRAL ILLINOIS

CITY           SKY/WX    TMP DP  RH WIND       PRES   REMARKS
ROCKFORD       CLEAR     43  36  76 NE6       29.93R
FREEPORT*      CLEAR     46  36  68 N5        29.93R
ROCHELLE*      CLEAR     42  38  85 NE9       29.91S
DE KALB*       CLEAR     40  37  87 N6        29.91R
$$

ILZ005-006-012>014-019>023-050500-
NORTHEAST ILLINOIS

CITY           SKY/WX    TMP DP  RH WIND       PRES   REMARKS
CHICAGO-OHARE  MOCLDY    43  34  70 N13       29.88S
CHICAGO-MIDWAY CLOUDY    44  33  65 N15G24    29.88S
AURORA         CLEAR     43  35  73 NE10G17   29.90R
LANSING*       CLOUDY    43  34  70 N18G25    29.86F
WAUKEGAN       MOCLDY    41  34  76 N10       29.89S
DUPAGE AIRPORT PTCLDY    41  34  76 N10       29.89S
WHEELING       CLOUDY    43  35  73 N12G22    29.90S
NORTHERLY ISL    N/A     43  35  73 N23         N/A
NORTHERLY ISL    N/A     43  35  73 N23         N/A
$$

LMZ740>746-050500-
SOUTHERN LAKE MICHIGAN

STATION/POSITION SKY/WX   TEMP    WIND        PRES    VSBY  WAVE
                          AIR SEA DIR/SP/G                  HT/PER
                          (F)     (DEG/KT/KT) (MB)    (MI)  (FT/S)
SOUTHERN BUOY              41 40   10/ 27/ 33 1010.1          9/ 8
WILMETTE HARBOR            42 43   20/ 16/ 21   N/A           7/ 8
HARRISON CRIB              44     360/ 21/ 23   N/A
BURNHAM HARBOR             43     320/ 18/ 22   N/A
CALUMET HARBOR                                1011.2R
BURNS HARBOR               44     360/ 24/ 29 1010.8S
MICHIGAN CITY              42     330/ 31/ 36   N/A
ST. JOSEPH                 42 47                N/A          10/ 8
$$

ILZ025>027-034>036-040-047-049-050-058-095>099-050500-
WEST-CENTRAL ILLINOIS

CITY           SKY/WX    TMP DP  RH WIND       PRES   REMARKS
QUINCY         CLEAR     51  38  60 NW7       29.91R
MACOMB*        CLEAR     45  38  76 NW7       29.92S
PITTSFIELD*    PTCLDY    53  39  58 NW5       29.91S
$$

ILZ028>032-037-038-041>044-048-051>054-059>061-050500-
CENTRAL ILLINOIS

CITY           SKY/WX    TMP DP  RH WIND       PRES   REMARKS
BLOOMINGTON    PTCLDY    48  42  80 N6        29.86S
DECATUR        CLEAR     48  41  76 CALM      29.85S
PEORIA         CLEAR     51  34  52 NW3       29.86S
SPRINGFIELD    CLEAR     49  38  65 W7        29.87S
TAYLORVILLE    NOT AVBL
$$

ILZ033-039-045-046-055>057-062-063-050500-
EAST-CENTRAL ILLINOIS

CITY           SKY/WX    TMP DP  RH WIND       PRES   REMARKS
CHAMPAIGN      CLOUDY    47  42  83 NW6       29.84S
MATTOON        MOCLDY    47  42  83 NW3       29.83F
$$

ILZ079-100>102-050500-
SOUTHWEST ILLINOIS

CITY           SKY/WX    TMP DP  RH WIND       PRES   REMARKS
BELLEVILLE     PTCLDY    53  39  60 W6        29.87F
CAHOKIA*       MOCLDY    57  36  45 W5        29.89S
SPARTA*        PTCLDY    52  41  66 CALM      29.90F
$$

ILZ064>066-069>071-074>076-080>082-084>086-088>090-092>094-050500-
SOUTH-CENTRAL ILLINOIS

CITY           SKY/WX    TMP DP  RH WIND       PRES   REMARKS
CARBONDALE     PTCLDY    48  44  86 CALM      29.89F
MT. VERNON     MOCLDY    46  37  71 CALM      29.88F
SALEM*         MOCLDY    49  43  79 CALM      29.87S
$$

ILZ067-068-072-073-078-083-087-091-050500-
SOUTHEAST ILLINOIS

CITY           SKY/WX    TMP DP  RH WIND       PRES   REMARKS
LAWRENCEVILLE  CLOUDY    51  45  79 W3        29.84F
FLORA*         CLOUDY    52  44  75 W5        29.86F
HARRISBURG*    PTCLDY    50  44  80 CALM      29.88F
ROBINSON*      CLOUDY    48  46  91 W6        29.84F
$$

ABBREVIATIONS USED IN REMARKS
   TC - TEMPERATURE IN CELSIUS
  WCI - WIND CHILL INDEX
   HX - HEAT INDEX
  VSB - VISIBILITY
$$





USA.gov is the U.S. government's official web portal to all federal, state and local government web resources and services.